Regional Weather Roundup
Issued by NWS

Home | Current Version | Previous Version | Text Only | Print | Product List | Glossary Off
Versions: 1 2 3 4 5 6 7 8 9 10 11 12 13 14 15 16 17 18 19 20 21 22 23 24 25 26 27 28 29 30 31 32 33 34 35 36 37 38 39 40 41 42 43 44 45 46 47 48 49 50

000
ASUS45 KBOI 011710
RWRID

IDAHO REGIONAL WEATHER ROUNDUP
NATIONAL WEATHER SERVICE BOISE ID
1100 AM MDT SAT AUG 01 2015

NOTE: "FAIR" INDICATES FEW OR NO CLOUDS BELOW 12000 FEET
WITH NO SIGNIFICANT WEATHER AND/OR OBSTRUCTIONS TO VISIBILITY

IDZ012-014-011800-
SOUTHWEST IDAHO


CITY           SKY/WX    TMP DP  RH WIND       PRES   REMARKS
BOISE          SUNNY     88  35  15 SE6       30.04F
CALDWELL       SUNNY     84  43  23 SE7       30.03F
MOUNTAIN HOME  SUNNY     85  33  15 SE12      30.05F
$$

IDZ016-017-011800-
SOUTHCENTRAL IDAHO


CITY           SKY/WX    TMP DP  RH WIND       PRES   REMARKS
BURLEY         SUNNY     80  44  27 N3        30.14S
JEROME         SUNNY     82  37  20 E10       30.14F
TWIN FALLS     SUNNY     85  35  16 NE8       30.12F
$$

IDZ019>023-011800-
SOUTHEAST IDAHO


CITY           SKY/WX    TMP DP  RH WIND       PRES   REMARKS
IDAHO FALLS    SUNNY     78  43  28 VRB3      30.20F
POCATELLO      SUNNY     79  37  22 VRB3      30.18F
REXBURG        SUNNY     74  45  35 CALM      30.21F
$$

IDZ006-010-011-018-031-032-011800-
CENTRAL IDAHO MOUNTAINS


CITY           SKY/WX    TMP DP  RH WIND       PRES   REMARKS
MCCALL         SUNNY     75  41  29 SW3       30.17F
STANLEY          N/A     68  33  27 N5        30.33F
SALMON         SUNNY     70  39  32 CALM      30.15F
CHALLIS        SUNNY     73  39  29 NE5       30.22F
$$

IDZ002-004-006-007-026-011800-
NORTHERN IDAHO


CITY           SKY/WX    TMP DP  RH WIND       PRES   REMARKS
LEWISTON       SUNNY     83  41  22 NE3       29.96F
LOWELL           N/A     74  46  36 CALM      30.01F
COEUR D`ALENE  SUNNY     82  43  24 SE8       29.98S
MULLAN PASS    SUNNY     76  25  15 NW6       30.23S
$$


USA.gov is the U.S. government's official web portal to all federal, state and local government web resources and services.